Epoch 2011 Aug. 27.0 TT = JDT 2455800.5 MPC M 8.28476 (2000.0) P Q n 0.28953108 Peri. 185.33817 +0.75958478 -0.64293582 a 2.2629376 Node 215.30321 +0.60285656 +0.75269351 e 0.9501458 Incl. 9.79432 +0.24412074 +0.14172511 P 3.40 H 18.0 G 0.15 U 3
H = 17.9 G = 0.15